sat.trackr.live / text

‹ back to catalog

STARLINK-11570 [DTC]

NORAD 62992 · 2025-031M

PAYLOAD ACTIVE UNKNOWN

§ Identity

Operator
Country
US
Launch date
2025-02-11
Launch site
AFETR
Launch vehicle
Mass (kg)
RCS (m²)

Purposes: comms

External: N2YO · Heavens-Above · Gunter

§ Orbital elements

Epoch: 2026-05-25T00:29:53.905920Z

Period
91.67 min
Inclination
43.0014°
Eccentricity
0.0001674
Mean motion
15.70879169 rev/d
Perigee alt
355.3 km
Apogee alt
357.5 km
Semi-major
6,734.5 km
B*
1.2220e-3
RAAN
261.6845°
Arg perigee
37.4107°
Mean anomaly
322.6877°
Rev number
7,473

§ Raw data

STARLINK-11570 [DTC]1 62992U 25031M   26145.02076280  .00159667  00000+0  12220-2 0  99942 62992  43.0014 261.6845 0001674  37.4107 322.6877 15.70879169 74733

JSON: /api/v1/satellites/62992 · /tle

For live sub-satellite position, see the globe view (requires WebGL).

§ Visibility from observer

Set your observer location to see the next 7 days of passes ≥ 10°. The values pass through the URL so the page stays shareable.

No JS? Fill the form by hand. The geolocation button needs JavaScript.